Stations météo

Publicité
Moskva, Russie (27612): Température de l'air & dewpoint: 20.04.2018 18:00:00 - 26.04.2018 18:00:00 (MSK)Moskva, Russie (27612): Vitesse du vent: 20.04.2018 18:00:00 - 26.04.2018 18:00:00 (MSK)Moskva, Russie (27612): Direction du vent: 20.04.2018 18:00:00 - 26.04.2018 18:00:00 (MSK)Moskva, Russie (27612): reduced air pressure: 20.04.2018 18:00:00 - 26.04.2018 18:00:00 (MSK)Moskva, Russie (27612): visibility: 20.04.2018 18:00:00 - 26.04.2018 18:00:00 (MSK)
Date & Time tt [°C] td [°C] ff [km/h] ff [knt] dd ppp [hPa] vv [km]
26.04.2018 18:00:00 - - - - - - -
26.04.2018 17:00:00 - - - - - - -
26.04.2018 16:00:00 - - - - - - -
26.04.2018 15:00:00 10,9 8,4 7 4 W 997,0 10
26.04.2018 14:00:00 - - - - - - -
26.04.2018 13:00:00 - - - - - - -
26.04.2018 12:00:00 9,9 8,7 4 2 S 997,2 4,0
26.04.2018 11:00:00 - - - - - - -
26.04.2018 10:00:00 - - - - - - -
26.04.2018 09:00:00 9,1 7,7 0 0 N 999,3 4,0
26.04.2018 08:00:00 - - - - - - -
26.04.2018 07:00:00 - - - - - - -
26.04.2018 06:00:00 6,9 5,2 0 0 N 1000,8 4,0
26.04.2018 05:00:00 - - - - - - -
26.04.2018 04:00:00 - - - - - - -
26.04.2018 03:00:00 6,1 4,0 0 0 N 1002,9 -
26.04.2018 02:00:00 - - - - - - -
26.04.2018 01:00:00 - - - - - - -
26.04.2018 00:00:00 9,5 4,1 4 2 WSW 1003,9 -
25.04.2018 23:00:00 - - - - - - -
25.04.2018 22:00:00 - - - - - - -
25.04.2018 21:00:00 9,6 6,3 0 0 N 1003,9 -
25.04.2018 20:00:00 - - - - - - -
25.04.2018 19:00:00 - - - - - - -
25.04.2018 18:00:00 12,0 6,6 4 2 S 1003,8 10
25.04.2018 17:00:00 - - - - - - -
25.04.2018 16:00:00 - - - - - - -
25.04.2018 15:00:00 14,1 3,9 4 2 SSW 1004,6 10
25.04.2018 14:00:00 - - - - - - -
25.04.2018 13:00:00 - - - - - - -
25.04.2018 12:00:00 11,5 3,7 4 2 S 1006,0 10
25.04.2018 11:00:00 - - - - - - -
25.04.2018 10:00:00 - - - - - - -
25.04.2018 09:00:00 8,4 4,1 4 2 SE 1007,0 10
25.04.2018 08:00:00 - - - - - - -
25.04.2018 07:00:00 - - - - - - -
25.04.2018 06:00:00 7,7 2,2 4 2 SSE 1007,8 4,0
25.04.2018 05:00:00 - - - - - - -
25.04.2018 04:00:00 - - - - - - -
25.04.2018 03:00:00 8,8 -1,9 4 2 S 1008,2 -
25.04.2018 02:00:00 - - - - - - -
25.04.2018 01:00:00 - - - - - - -
25.04.2018 00:00:00 8,8 -3,8 0 0 N 1009,0 -
24.04.2018 23:00:00 - - - - - - -
24.04.2018 22:00:00 - - - - - - -
24.04.2018 21:00:00 8,0 -4,9 0 0 N 1010,1 -
24.04.2018 20:00:00 - - - - - - -
24.04.2018 19:00:00 - - - - - - -
24.04.2018 18:00:00 11,5 -8,5 4 2 W 1010,1 10
24.04.2018 17:00:00 - - - - - - -
24.04.2018 16:00:00 - - - - - - -
24.04.2018 15:00:00 11,5 -10,9 7 4 NNW 1011,5 10
24.04.2018 14:00:00 - - - - - - -
24.04.2018 13:00:00 - - - - - - -
24.04.2018 12:00:00 9,4 -9,3 7 4 W 1013,5 10
24.04.2018 11:00:00 - - - - - - -
24.04.2018 10:00:00 - - - - - - -
24.04.2018 09:00:00 7,1 -8,9 4 2 NW 1014,4 10
24.04.2018 08:00:00 - - - - - - -
24.04.2018 07:00:00 - - - - - - -
24.04.2018 06:00:00 -2,0 -5,3 0 0 N 1015,3 10
24.04.2018 05:00:00 - - - - - - -
24.04.2018 04:00:00 - - - - - - -
24.04.2018 03:00:00 -1,6 -6,3 0 0 N 1015,0 -
24.04.2018 02:00:00 - - - - - - -
24.04.2018 01:00:00 - - - - - - -
24.04.2018 00:00:00 0,3 -6,0 0 0 N 1014,2 -
23.04.2018 23:00:00 - - - - - - -
23.04.2018 22:00:00 - - - - - - -
23.04.2018 21:00:00 4,9 -9,8 4 2 NW 1013,8 -
23.04.2018 20:00:00 - - - - - - -
23.04.2018 19:00:00 - - - - - - -
23.04.2018 18:00:00 7,0 -10,9 11 6 NNW 1012,8 10
23.04.2018 17:00:00 - - - - - - -
23.04.2018 16:00:00 - - - - - - -
23.04.2018 15:00:00 7,3 -9,9 7 4 NW 1012,9 10
23.04.2018 14:00:00 - - - - - - -
23.04.2018 13:00:00 - - - - - - -
23.04.2018 12:00:00 5,0 -10,0 11 6 NNW 1013,4 10
23.04.2018 11:00:00 - - - - - - -
23.04.2018 10:00:00 - - - - - - -
23.04.2018 09:00:00 2,3 -8,9 11 6 NNW 1013,3 10
23.04.2018 08:00:00 - - - - - - -
23.04.2018 07:00:00 - - - - - - -
23.04.2018 06:00:00 -0,4 -6,9 7 4 NNW 1012,2 10
23.04.2018 05:00:00 - - - - - - -
23.04.2018 04:00:00 - - - - - - -
23.04.2018 03:00:00 0,8 -6,9 7 4 NNW 1010,7 -
23.04.2018 02:00:00 - - - - - - -
23.04.2018 01:00:00 - - - - - - -
23.04.2018 00:00:00 1,2 -5,8 7 4 NNW 1009,8 -
22.04.2018 23:00:00 - - - - - - -
22.04.2018 22:00:00 - - - - - - -
22.04.2018 21:00:00 1,6 -4,3 7 4 N 1008,3 -
22.04.2018 20:00:00 - - - - - - -
22.04.2018 19:00:00 - - - - - - -
22.04.2018 18:00:00 3,1 -4,4 14 8 N 1005,3 10
22.04.2018 17:00:00 - - - - - - -
22.04.2018 16:00:00 - - - - - - -
22.04.2018 15:00:00 2,3 -3,7 14 8 NNW 1003,5 10
22.04.2018 14:00:00 - - - - - - -
22.04.2018 13:00:00 - - - - - - -
22.04.2018 12:00:00 2,7 -2,6 11 6 NW 1000,4 10
22.04.2018 11:00:00 - - - - - - -
22.04.2018 10:00:00 - - - - - - -
22.04.2018 09:00:00 2,8 -2,3 11 6 NNW 998,1 10
22.04.2018 08:00:00 - - - - - - -
22.04.2018 07:00:00 - - - - - - -
22.04.2018 06:00:00 3,0 -1,4 11 6 NW 996,2 10
22.04.2018 05:00:00 - - - - - - -
22.04.2018 04:00:00 - - - - - - -
22.04.2018 03:00:00 3,4 0,7 11 6 NW 994,3 -
22.04.2018 02:00:00 - - - - - - -
22.04.2018 01:00:00 - - - - - - -
22.04.2018 00:00:00 5,0 2,7 11 6 WNW 991,0 -
21.04.2018 23:00:00 - - - - - - -
21.04.2018 22:00:00 - - - - - - -
21.04.2018 21:00:00 10,0 5,1 11 6 WNW 988,3 -
21.04.2018 20:00:00 - - - - - - -
21.04.2018 19:00:00 - - - - - - -
21.04.2018 18:00:00 12,3 8,2 7 4 WNW 987,8 10
21.04.2018 17:00:00 - - - - - - -
21.04.2018 16:00:00 - - - - - - -
21.04.2018 15:00:00 19,8 5,4 11 6 WSW 988,8 10
21.04.2018 14:00:00 - - - - - - -
21.04.2018 13:00:00 - - - - - - -
21.04.2018 12:00:00 18,8 6,6 7 4 WSW 993,9 10
21.04.2018 11:00:00 - - - - - - -
21.04.2018 10:00:00 - - - - - - -
21.04.2018 09:00:00 13,6 4,8 7 4 WSW 999,7 10
21.04.2018 08:00:00 - - - - - - -
21.04.2018 07:00:00 - - - - - - -
21.04.2018 06:00:00 10,4 2,1 4 2 W 1003,9 10
21.04.2018 05:00:00 - - - - - - -
21.04.2018 04:00:00 - - - - - - -
21.04.2018 03:00:00 10,2 1,0 0 0 N 1007,5 -
21.04.2018 02:00:00 - - - - - - -
21.04.2018 01:00:00 - - - - - - -
21.04.2018 00:00:00 8,9 2,2 0 0 N 1011,2 -
20.04.2018 23:00:00 - - - - - - -
20.04.2018 22:00:00 - - - - - - -
20.04.2018 21:00:00 9,9 0,2 0 0 N 1012,9 -
20.04.2018 20:00:00 - - - - - - -
20.04.2018 19:00:00 - - - - - - -
20.04.2018 18:00:00 13,4 -1,6 7 4 N 1013,8 10

tt = Température de l'air
td = dewpoint
ff = Vitesse du vent
dd = Direction du vent
ppp = reduced air pressure
vv = visibility

stations d'obs. à proximité